Regional Weather Roundup
Issued by NWS

Home | Current Version | Previous Version | Text Only | Print | Product List | Glossary On
Versions: 1 2 3 4 5 6 7 8 9 10 11 12 13 14 15 16 17 18 19 20 21 22 23 24 25 26 27
000
ASUS42 KKEY 050810
RWRKEY

FLORIDA REGIONAL WEATHER ROUNDUP FOR THE FLORIDA KEYS
NATIONAL WEATHER SERVICE KEY WEST FLORIDA
400 AM EDT THU MAY 05 2016

...SOUTH FLORIDA AND THE KEYS...

CITY           SKY/WX    TMP DP  RH WIND       PRES   REMARKS
FORT MYERS     CLEAR     69  61  75 NW9       29.74F
SW REGIONAL AP CLEAR     69  59  70 NW3       29.75S
NAPLES         MOCLDY    73  61  65 NW15G24   29.76R
MIAMI          CLEAR     69  64  84 NW10      29.74S
WEST KENDALL   CLEAR     69  66  90 NW12      29.74S
HOMESTEAD      PTCLDY    70  66  88 NW9       29.73S
MARATHON       CLOUDY    76  68  76 NW14G25   29.75S
BOCA CHICA NAS CLOUDY    74  67  78 NW22G28   29.76S
KEY WEST INTL  CLOUDY    73  70  90 NW16G23   29.77S

...INTERNATIONAL WEATHER...

CITY           SKY/WX    TMP DP  RH WIND       PRES   REMARKS
NASSAU BAHAMAS NOT AVBL
CANCUN MEXICO  MOCLDY    75  73  94 NW2       29.87F
COZUMEL MEXICO PTCLDY    75  73  94 N8        29.87F

ADJACENT COASTAL WATERS...

STATION/POSITION TIME  SKY/WX   TEMP    WIND        PRES    WAVE
                                AIR SEA DIR/SP/G            HT/PER
                 (UTC)          (F)     (DEG/KT/KT) (MB)    (FT/S)
PULASKI SHOAL LI 0800            76     330/ 22/ 25 1008.3F
SAND KEY         0750            76     340/ 22/ 25 1008.3F
SOMBRERO KEY     NOT AVBL
LONG KEY         0800            77 81  330/ 23/ 27 1007.3R
MOLASSES REEF    0800            74 80  340/ 18/ 20 1006.9R
FOWEY ROCKS      NOT AVBL

$$




USA.gov is the U.S. government's official web portal to all federal, state and local government web resources and services.